Regional Weather Roundup
Issued by NWS

Home | Current Version | Previous Version | Text Only | Print | Product List | Glossary On
Versions: 1 2 3 4 5 6 7 8 9 10 11 12 13 14 15 16 17 18 19 20 21 22 23 24 25 26 27
000
ASUS45 KBOI 232010
RWRID

IDAHO REGIONAL WEATHER ROUNDUP
NATIONAL WEATHER SERVICE BOISE ID
200 PM MDT SAT SEP 23 2017

NOTE: "FAIR" INDICATES FEW OR NO CLOUDS BELOW 12000 FEET
WITH NO SIGNIFICANT WEATHER AND/OR OBSTRUCTIONS TO VISIBILITY

IDZ012-014-232100-
SOUTHWEST IDAHO


CITY           SKY/WX    TMP DP  RH WIND       PRES   REMARKS
BOISE          SUNNY     55  39  54 NW7       30.05F
CALDWELL       SUNNY     58  37  45 W7G17     30.06F
MOUNTAIN HOME  SUNNY     57  39  52 NW8       30.04F
$$

IDZ016-017-232100-
SOUTHCENTRAL IDAHO


CITY           SKY/WX    TMP DP  RH WIND       PRES   REMARKS
BURLEY         PTSUNNY   49  35  58 VRB7      30.01F
JEROME         MOSUNNY   50  37  61 S5        30.03F
TWIN FALLS     MOSUNNY   52  38  58 W12G22    30.03F
$$

IDZ019>023-232100-
SOUTHEAST IDAHO


CITY           SKY/WX    TMP DP  RH WIND       PRES   REMARKS
IDAHO FALLS    MOSUNNY   50  35  56 CALM      30.01F
POCATELLO      MOSUNNY   50  33  52 VRB3      30.02F
REXBURG        MOSUNNY   49  32  52 NE3       30.00F
$$

IDZ006-010-011-018-031-032-232100-
CENTRAL IDAHO MOUNTAINS


CITY           SKY/WX    TMP DP  RH WIND       PRES   REMARKS
MCCALL         CLOUDY    48  28  46 VRB6      30.04S
HAILEY         PTSUNNY   52  32  46 E5        30.01F
STANLEY          N/A     44  28  53 VRB3      30.06S
SALMON         CLOUDY    50  33  52 NW5       30.07F
CHALLIS        CLOUDY    47  31  53 N3        30.05S
$$

IDZ002-004-006-007-026-232100-
NORTHERN IDAHO


CITY           SKY/WX    TMP DP  RH WIND       PRES   REMARKS
LEWISTON       PTSUNNY   60  44  55 VRB3      30.10F
LOWELL           N/A     58  38  47 S5        30.10S
COEUR D`ALENE  MOSUNNY   57  41  55 SE7       30.09F
MULLAN PASS    CLOUDY    38  34  85 CALM      30.09S
$$




USA.gov is the U.S. government's official web portal to all federal, state and local government web resources and services.